User: anonymous   Login
Location: Unspecified
(0.0000°N, 0.0000°E)
Time: 08:35:21
(UTC+00:00)
Language:

OV2-5 - Orbit

View from above orbital plane
View from above orbital plane
View from above satellite
View from above satellite

Ground track
Ground track

The orbit data is extracted from the following two-line orbital elements,

1 03428U 68081A   18018.51442160 -.00000014  00000-0  00000+0 0  9996
2 03428   5.4465 311.0567 0090704 329.6478 168.1433  1.01555214 90194
Epoch (UTC): 18 January 2018 12:20:46
Eccentricity: 0.0090704
inclination: 5.4465°
perigee height: 35051 km
apogee height: 35809 km
right ascension of ascending node: 311.0567°
argument of perigee: 329.6478°
revolutions per day: 1.01555214
mean anomaly at epoch: 168.1433°
orbit number at epoch: 9019

The dashed part of the orbit path shows where the satellite is in the earth's shadow,  

DLR